{"data":{"norad_id":57778,"intl_designator":"2023-134H","name":"STARLINK-30385","alt_names":[],"object_type":"PAYLOAD","status":"ACTIVE","operator":null,"country":"US","launch_date":"2023-09-04","launch_site_code":"AFETR","launch_vehicle":null,"mission":null,"orbit_class":"UNKNOWN","rcs_meters":null,"size_class":null,"mass_kg":null,"dimensions":null,"purposes":["comms"],"wikipedia_slug":null,"has_3d_model":false,"image_url":null,"decayed_at":null,"tle_current":{"epoch":"2026-05-25T05:03:14.673600Z","epoch_age_seconds":63638,"freshness":"FRESH","line1":"1 57778U 23134H   26145.21058650  .00000053  00000+0  11434-4 0  9996","line2":"2 57778  43.0042 110.8480 0001193 270.2009  89.8706 15.27572185151182","mean_motion":15.27572185,"eccentricity":0.0001193,"inclination_deg":43.0042,"raan_deg":110.848,"arg_perigee_deg":270.2009,"mean_anomaly_deg":89.8706,"bstar":1.1434e-5,"rev_number":15118,"period_min":94.267230978679,"perigee_km":482.25395476785,"apogee_km":483.89103935385,"semimajor_km":6861.2094970608,"source":"CELESTRAK","updated_at":"2026-05-25T13:38:18.405168Z"}}}